Location: Newark
(44.2764°N, 5.2753°E)
Time: 23:38:48
(UTC+00:00)

N. Korean satellite - Visible Passes

Search period start: 22 January 2020 00:00
Search period end: 01 February 2020 00:00
Orbit: 454 x 507 km, 97.2° (Epoch: 22 January)

Date Brightness Start Highest point End Pass type
(mag) Time Alt. Az. Time Alt. Az. Time Alt. Az.
22 Jan 6.6 05:27:55 10° NNE 05:31:28 77° ESE 05:35:03 10° S visible
22 Jan 9.8 17:39:43 10° SW 17:41:41 15° W 17:43:39 10° WNW visible
23 Jan 8.2 05:02:38 10° NNE 05:05:56 35° E 05:09:15 10° SSE visible
23 Jan 8.8 17:13:00 10° SSW 17:16:01 29° W 17:19:04 10° NW visible
24 Jan 9.5 04:37:49 10° NE 04:40:18 18° E 04:42:49 10° SE visible
24 Jan 7.3 06:10:36 10° N 06:13:44 30° WNW 06:16:55 10° SW visible
25 Jan 6.5 05:44:48 10° N 05:48:20 63° WNW 05:51:55 10° SSW visible
26 Jan 7.1 05:19:18 10° NNE 05:22:51 59° E 05:26:26 10° S visible
26 Jan 9.6 17:30:33 10° SW 17:32:59 18° W 17:35:26 10° NW visible
27 Jan 8.7 04:54:08 10° NE 04:57:17 28° E 05:00:27 10° SSE visible
27 Jan 7.9 06:27:51 10° NNW 06:30:30 20° WNW 06:33:11 10° WSW visible
28 Jan 9.8 04:29:33 10° ENE 04:31:37 14° E 04:33:41 10° SE visible
28 Jan 7.0 06:01:48 10° N 06:05:09 38° WNW 06:08:33 10° SW visible
29 Jan 6.5 05:36:06 10° N 05:39:43 82° WNW 05:43:22 10° SSW visible
29 Jan 10.1 17:48:46 10° WSW 17:49:58 11° W 17:51:10 10° WNW visible
30 Jan 7.7 05:10:42 10° NNE 05:14:12 46° E 05:17:44 10° S visible
30 Jan 9.3 17:21:29 10° SSW 17:24:15 23° W 17:27:04 10° NW visible
31 Jan 9.1 04:45:39 10° NE 04:48:36 23° E 04:51:33 10° SSE visible
31 Jan 7.7 06:18:56 10° NNW 06:21:56 24° WNW 06:24:56 10° SW visible
